Date String (YYYY-MM-DD hh:mm:ss) UTC,Instrument flags,absolute air pressure of the measurement (hPa),sample flow rate (lpm),inlet stack bypass flow (lpm),air temperature of the measurement (°C),ambient temperature measured by the external sensor (°C),aerosol sample conditioner tube jacket temperature (°C),OPC LED temperature (°C),internal box temperature (°C),relative humidity of the measurement (%),span deviation,mass concentration of particles derived from Lorenz-Mie calculation of OPC scattering (μg/m³),mass concentration of particles derived from Lorenz-Mie calculation of OPC scattering (μg/m³),mass concentration of particles derived from Lorenz-Mie calculation of OPC scattering (μg/m³)
DateTimeUTC,F1_M11,P_M11,Q1_M11,Q2_M11,T1_M11,T2_M11,T3_M11,T4_M11,T5_M11,U1_M11,ZSPAN_M11,X2_M11,X0_M11,X1_M11
2023-08-19 06:00:00,SystemResetWarning,0831.2,5.00,000.00,027.8,026.0,000.0,036.3,029.6,27.7,0000.0,0001.97,0003.29,0001.40
2023-08-19 06:01:00,SystemResetWarning,0831.2,5.00,000.00,027.9,026.2,000.0,036.3,029.7,27.9,0000.0,0001.93,0003.23,0001.38
2023-08-19 06:02:00,SystemResetWarning,0831.2,5.00,000.00,027.9,026.5,000.0,036.3,029.7,28.2,0000.0,0001.91,0003.20,0001.37
2023-08-19 06:03:00,SystemResetWarning,0831.2,5.00,000.00,028.0,026.7,000.0,036.3,029.8,28.1,0000.0,0001.86,0003.44,0001.35
2023-08-19 06:04:00,SystemResetWarning,0831.2,5.00,000.00,028.0,026.8,000.0,036.4,029.9,27.3,0000.0,0001.80,0004.29,0001.33
2023-08-19 06:05:00,SystemResetWarning,0831.3,5.00,000.00,028.1,027.0,000.0,036.4,029.9,27.1,0000.0,0001.75,0004.18,0001.32
2023-08-19 06:06:00,SystemResetWarning,0831.2,5.00,000.00,028.1,027.1,000.0,036.4,030.0,27.0,0000.0,0001.75,0004.12,0001.33
2023-08-19 06:07:00,SystemResetWarning,0831.3,4.99,000.00,028.2,026.1,000.0,036.4,029.9,26.9,0000.0,0001.74,0004.09,0001.33
2023-08-19 06:08:00,SystemResetWarning,0831.3,5.01,000.00,028.1,024.8,000.0,036.3,029.6,26.9,0000.0,0001.73,0004.05,0001.34
2023-08-19 06:09:00,SystemResetWarning,0831.2,5.01,000.00,028.0,024.6,000.0,036.2,029.5,27.0,0000.0,0001.74,0004.08,0001.35
2023-08-19 06:10:00,SystemResetWarning,0831.3,5.00,000.00,028.0,024.9,000.0,036.3,029.4,28.2,0000.0,0001.71,0003.92,0001.35
2023-08-19 06:11:00,SystemResetWarning,0831.2,5.00,000.00,027.9,025.2,000.0,036.3,029.5,27.9,0000.0,0001.67,0003.88,0001.34
2023-08-19 06:12:00,SystemResetWarning,0831.3,5.00,000.00,028.0,025.6,000.0,036.4,029.6,27.2,0000.0,0001.70,0003.99,0001.35
2023-08-19 06:13:00,SystemResetWarning,0831.3,5.00,000.00,028.0,025.9,000.0,036.4,029.7,27.0,0000.0,0001.73,0004.08,0001.35
2023-08-19 06:14:00,SystemResetWarning,0831.2,5.00,000.00,028.0,026.2,000.0,036.4,029.7,27.0,0000.0,0001.73,0003.76,0001.36
2023-08-19 06:15:00,SystemResetWarning,0831.2,5.00,000.00,028.1,026.4,000.0,036.4,029.8,26.9,0000.0,0001.73,0002.74,0001.37
2023-08-19 06:16:00,SystemResetWarning,0831.3,5.00,000.00,028.1,026.6,000.0,036.5,029.9,26.9,0000.0,0001.71,0002.79,0001.37
2023-08-19 06:17:00,SystemResetWarning,0831.3,5.00,000.00,028.1,026.8,000.0,036.5,029.9,26.8,0000.0,0001.74,0002.86,0001.38
2023-08-19 06:18:00,SystemResetWarning,0831.3,4.99,000.00,028.2,026.9,000.0,036.5,030.0,26.7,0000.0,0001.78,0002.94,0001.38
2023-08-19 06:19:00,SystemResetWarning,0831.3,4.99,000.00,028.2,025.5,000.0,036.4,029.7,26.8,0000.0,0001.80,0003.01,0001.39
2023-08-19 06:20:00,SystemResetWarning,0831.3,5.01,000.00,028.1,023.9,000.0,036.3,029.4,27.0,0000.0,0001.82,0003.07,0001.38
2023-08-19 06:21:00,SystemResetWarning,0831.3,5.01,000.00,028.0,023.6,000.0,036.3,029.2,27.6,0000.0,0001.82,0003.06,0001.39
2023-08-19 06:22:00,SystemResetWarning,0831.3,5.00,000.00,027.9,023.9,000.0,036.3,029.1,27.4,0000.0,0001.86,0003.09,0001.41
2023-08-19 06:23:00,SystemResetWarning,0831.3,5.00,000.00,027.8,024.4,000.0,036.3,029.2,27.5,0000.0,0001.85,0003.20,0001.41
2023-08-19 06:24:00,SystemResetWarning,0831.3,5.00,000.00,027.8,024.8,000.0,036.3,029.3,27.3,0000.0,0001.80,0003.32,0001.41
2023-08-19 06:25:00,SystemResetWarning,0831.3,5.00,000.00,027.8,025.3,000.0,036.3,029.4,27.3,0000.0,0001.83,0004.25,0001.41
2023-08-19 06:26:00,SystemResetWarning,0831.3,5.00,000.00,027.8,025.6,000.0,036.3,029.5,27.5,0000.0,0001.84,0004.27,0001.41
2023-08-19 06:27:00,SystemResetWarning,0831.3,5.00,000.00,027.9,026.0,000.0,036.3,029.6,27.8,0000.0,0001.85,0004.25,0001.41
2023-08-19 06:28:00,SystemResetWarning,0831.3,4.99,000.00,027.9,026.2,000.0,036.4,029.7,27.3,0000.0,0001.84,0004.15,0001.41
2023-08-19 06:29:00,SystemResetWarning,0831.3,5.00,000.00,027.9,026.5,000.0,036.4,029.7,27.1,0000.0,0001.82,0004.20,0001.40
2023-08-19 06:30:00,SystemResetWarning,0831.3,5.00,000.00,028.0,026.6,000.0,036.4,029.8,27.0,0000.0,0001.80,0004.15,0001.39
2023-08-19 06:31:00,SystemResetWarning,0831.4,5.01,000.00,028.0,026.8,000.0,036.4,029.9,27.1,0000.0,0001.78,0004.09,0001.39
2023-08-19 06:32:00,SystemResetWarning,0831.4,5.00,000.00,028.1,027.0,000.0,036.5,029.9,27.3,0000.0,0001.81,0004.17,0001.38
2023-08-19 06:33:00,SystemResetWarning,0831.4,5.00,000.00,028.1,027.1,000.0,036.5,030.0,27.2,0000.0,0001.80,0004.15,0001.36
2023-08-19 06:34:00,SystemResetWarning,0831.4,4.99,000.00,028.2,026.4,000.0,036.5,029.9,27.0,0000.0,0001.81,0003.97,0001.36
2023-08-19 06:35:00,SystemResetWarning,0831.4,5.00,000.00,028.1,024.6,000.0,036.4,029.5,27.4,0000.0,0001.85,0003.84,0001.37
2023-08-19 06:36:00,SystemResetWarning,0831.4,5.01,000.00,028.0,023.6,000.0,036.3,029.2,27.2,0000.0,0001.84,0002.86,0001.39
2023-08-19 06:37:00,SystemResetWarning,0831.4,5.01,000.00,027.9,023.7,000.0,036.2,029.2,27.2,0000.0,0001.83,0003.55,0001.38
2023-08-19 06:38:00,SystemResetWarning,0831.4,4.99,000.00,027.8,024.1,000.0,036.3,029.1,27.2,0000.0,0001.86,0003.68,0001.38
2023-08-19 06:39:00,SystemResetWarning,0831.4,5.00,000.00,027.8,024.6,000.0,036.3,029.2,27.3,0000.0,0001.85,0003.65,0001.38
2023-08-19 06:40:00,SystemResetWarning,0831.4,5.00,000.00,027.8,025.0,000.0,036.3,029.4,27.4,0000.0,0001.86,0003.54,0001.39
2023-08-19 06:41:00,SystemResetWarning,0831.5,5.00,000.00,027.8,025.4,000.0,036.3,029.5,27.4,0000.0,0001.90,0003.71,0001.40
2023-08-19 06:42:00,SystemResetWarning,0831.5,5.00,000.00,027.8,025.8,000.0,036.3,029.5,27.2,0000.0,0001.88,0003.70,0001.40
2023-08-19 06:43:00,SystemResetWarning,0831.4,5.00,000.00,027.9,026.1,000.0,036.3,029.6,27.2,0000.0,0001.89,0003.86,0001.40
2023-08-19 06:44:00,SystemResetWarning,0831.5,5.00,000.00,027.9,026.3,000.0,036.3,029.7,27.2,0000.0,0001.86,0003.80,0001.41
2023-08-19 06:45:00,SystemResetWarning,0831.5,5.00,000.00,027.9,026.5,000.0,036.4,029.7,27.3,0000.0,0001.88,0003.86,0001.41
2023-08-19 06:46:00,SystemResetWarning,0831.5,5.01,000.00,028.0,026.7,000.0,036.4,029.8,27.4,0000.0,0001.84,0003.77,0001.41
2023-08-19 06:47:00,SystemResetWarning,0831.5,5.01,000.00,028.0,026.8,000.0,036.4,029.8,27.7,0000.0,0001.81,0003.67,0001.39
2023-08-19 06:48:00,SystemResetWarning,0831.5,5.00,000.00,028.1,027.0,000.0,036.4,029.9,27.5,0000.0,0001.86,0003.09,0001.39
2023-08-19 06:49:00,SystemResetWarning,0831.4,5.00,000.00,028.1,027.1,000.0,036.5,030.0,28.4,0000.0,0001.84,0003.00,0001.40
2023-08-19 06:50:00,SystemResetWarning,0831.5,5.00,000.00,028.2,027.2,000.0,036.5,030.0,27.3,0000.0,0001.83,0002.99,0001.40
2023-08-19 06:51:00,SystemResetWarning,0831.5,4.99,000.00,028.2,026.6,000.0,036.5,029.9,27.1,0000.0,0001.80,0002.92,0001.40
2023-08-19 06:52:00,SystemResetWarning,0831.4,5.01,000.00,028.2,025.0,000.0,036.4,029.7,26.7,0000.0,0001.77,0002.77,0001.39
2023-08-19 06:53:00,SystemResetWarning,0831.4,5.00,000.00,028.1,024.6,000.0,036.3,029.5,26.5,0000.0,0001.76,0002.66,0001.39
2023-08-19 06:54:00,SystemResetWarning,0831.5,5.00,000.00,028.0,024.8,000.0,036.4,029.5,26.7,0000.0,0001.71,0002.40,0001.38
2023-08-19 06:55:00,SystemResetWarning,0831.4,5.01,000.00,028.0,025.1,000.0,036.4,029.5,26.9,0000.0,0001.72,0002.41,0001.38
2023-08-19 06:56:00,SystemResetWarning,0831.5,5.00,000.00,028.0,025.5,000.0,036.4,029.6,26.9,0000.0,0001.70,0002.35,0001.39
2023-08-19 06:57:00,SystemResetWarning,0831.4,5.00,000.00,028.0,025.8,000.0,036.4,029.7,26.8,0000.0,0001.73,0002.38,0001.39
2023-08-19 06:58:00,SystemResetWarning,0831.5,5.00,000.00,028.0,026.1,000.0,036.5,029.7,26.7,0000.0,0001.76,0002.50,0001.39
2023-08-19 06:59:00,SystemResetWarning,0831.5,5.00,000.00,028.1,026.4,000.0,036.5,029.8,27.5,0000.0,0001.72,0002.45,0001.38
